When you browse on this site, cookies collect data to enhance your experience and personalize the content and advertising you see.
Visit our Privacy Policy to learn more. By continuing to use the site, you agree to this use of cookies and data.
  • In Lithuania
  • List of Countries
  • For 7 days
  • Water Temperature
  • Weather Map
  • Weather Widgets
  • user-avatar
    Login

    Hourly Weather Zatec

    Today, 20 September, Friday

    Time Temperature Precipitation Wind Pressure Humidity
    00:00 +8°C° 0 mm 1 mps 750 mmHg 85%
    01:00 +7°C° 0 mm 1 mps 750 mmHg 86%
    02:00 +7°C° 0 mm 1 mps 750 mmHg 87%
    03:00 +7°C° 0 mm 1 mps 750 mmHg 87%
    04:00 +7°C° 0 mm 1 mps 750 mmHg 88%
    05:00 +7°C° 0 mm 1 mps 750 mmHg 86%
    06:00 +8°C° 0 mm 1 mps 750 mmHg 84%
    07:00 +8°C° 0 mm 1 mps 750 mmHg 82%
    08:00 +10°C° 0 mm 1 mps 750 mmHg 74%
    09:00 +12°C° 0 mm 1 mps 750 mmHg 65%
    10:00 +14°C° 0 mm 0 mps 750 mmHg 57%
    11:00 +15°C° 0 mm 1 mps 750 mmHg 53%
    12:00 +16°C° 0 mm 1 mps 749 mmHg 49%
    13:00 +18°C° 0 mm 1 mps 749 mmHg 45%
    14:00 +18°C° 0 mm 1 mps 748 mmHg 46%
    15:00 +18°C° 0 mm 1 mps 748 mmHg 47%
    16:00 +18°C° 0 mm 1 mps 748 mmHg 48%
    17:00 +15°C° 0 mm 1 mps 748 mmHg 56%
    18:00 +13°C° 0 mm 1 mps 748 mmHg 63%
    19:00 +11°C° 0 mm 1 mps 747 mmHg 71%
    20:00 +11°C° 0 mm 1 mps 747 mmHg 73%
    21:00 +9°C° 0 mm 0 mps 748 mmHg 75%
    22:00 +9°C° 0 mm 0 mps 748 mmHg 77%
    23:00 +8°C° 0 mm 0 mps 747 mmHg 79%

    Tomorrow, 21 September, Saturday

    Time Temperature Precipitation Wind Pressure Humidity
    00:00 +8°C° 0 mm 0 mps 747 mmHg 80%
    01:00 +8°C° 0 mm 0 mps 747 mmHg 81%
    02:00 +7°C° 0 mm 0 mps 747 mmHg 82%
    03:00 +7°C° 0 mm 0 mps 747 mmHg 83%
    04:00 +7°C° 0 mm 0 mps 746 mmHg 84%
    05:00 +7°C° 0 mm 0 mps 746 mmHg 82%
    06:00 +8°C° 0 mm 0 mps 746 mmHg 80%
    07:00 +9°C° 0 mm 0 mps 746 mmHg 79%
    08:00 +11°C° 0 mm 1 mps 746 mmHg 71%
    09:00 +13°C° 0 mm 1 mps 746 mmHg 64%
    10:00 +15°C° 0 mm 2 mps 746 mmHg 56%
    11:00 +16°C° 0 mm 2 mps 745 mmHg 53%
    12:00 +17°C° 0 mm 2 mps 745 mmHg 50%
    13:00 +19°C° 0 mm 3 mps 745 mmHg 47%
    14:00 +19°C° 0 mm 3 mps 744 mmHg 48%
    15:00 +19°C° 0 mm 3 mps 744 mmHg 48%
    16:00 +19°C° 0 mm 3 mps 743 mmHg 49%
    17:00 +17°C° 0 mm 3 mps 743 mmHg 56%
    18:00 +15°C° 0 mm 2 mps 743 mmHg 62%
    19:00 +13°C° 0 mm 2 mps 743 mmHg 69%
    20:00 +13°C° 0 mm 2 mps 743 mmHg 70%
    21:00 +12°C° 0 mm 2 mps 742 mmHg 71%
    22:00 +10°C° 0 mm 2 mps 742 mmHg 72%
    23:00 +10°C° 0 mm 2 mps 742 mmHg 73%

    Day after tomorrow, 22 September, Sunday

    Time Temperature Precipitation Wind Pressure Humidity
    00:00 +9°C° 0 mm 2 mps 742 mmHg 74%
    01:00 +9°C° 0 mm 2 mps 741 mmHg 74%
    02:00 +8°C° 0 mm 2 mps 741 mmHg 76%
    03:00 +8°C° 0 mm 2 mps 741 mmHg 77%
    04:00 +7°C° 0 mm 2 mps 740 mmHg 78%
    05:00 +8°C° 0 mm 2 mps 740 mmHg 77%
    06:00 +8°C° 0 mm 2 mps 740 mmHg 76%
    07:00 +8°C° 0 mm 2 mps 740 mmHg 74%
    08:00 +10°C° 0 mm 2 mps 740 mmHg 67%
    09:00 +13°C° 0 mm 2 mps 740 mmHg 61%
    10:00 +14°C° 0 mm 3 mps 740 mmHg 54%
    11:00 +16°C° 0 mm 3 mps 739 mmHg 51%
    12:00 +18°C° 0 mm 3 mps 739 mmHg 48%
    13:00 +19°C° 0 mm 3 mps 739 mmHg 46%
    14:00 +19°C° 0 mm 3 mps 738 mmHg 48%
    15:00 +19°C° 0 mm 3 mps 738 mmHg 50%
    16:00 +19°C° 0 mm 3 mps 737 mmHg 52%
    17:00 +18°C° 0 mm 2 mps 737 mmHg 56%
    18:00 +16°C° 0 mm 2 mps 737 mmHg 60%
    19:00 +14°C° 0 mm 1 mps 737 mmHg 65%
    20:00 +14°C° 0 mm 1 mps 737 mmHg 65%
    21:00 +14°C° 0 mm 1 mps 736 mmHg 66%
    22:00 +13°C° 0 mm 1 mps 736 mmHg 66%
    23:00 +13°C° 0 mm 1 mps 736 mmHg 67%

    23 September, Monday

    Time Temperature Precipitation Wind Pressure Humidity
    00:00 +13°C° 0 mm 1 mps 736 mmHg 68%
    01:00 +12°C° 0 mm 1 mps 736 mmHg 69%
    02:00 +12°C° 0 mm 1 mps 736 mmHg 69%
    03:00 +11°C° 0 mm 0 mps 735 mmHg 69%
    04:00 +11°C° 0 mm 0 mps 735 mmHg 69%
    05:00 +11°C° 0 mm 0 mps 735 mmHg 69%
    06:00 +12°C° 0 mm 0 mps 735 mmHg 69%
    07:00 +12°C° 0 mm 0 mps 735 mmHg 69%
    08:00 +14°C° 0 mm 1 mps 736 mmHg 67%
    09:00 +15°C° 0 mm 1 mps 736 mmHg 65%
    10:00 +18°C° 0 mm 1 mps 736 mmHg 63%
    11:00 +18°C° 0 mm 1 mps 736 mmHg 64%
    12:00 +19°C° 0 mm 1 mps 736 mmHg 64%
    13:00 +19°C° 0 mm 2 mps 736 mmHg 65%
    14:00 +18°C° 0 mm 2 mps 736 mmHg 69%
    15:00 +18°C° 0 mm 2 mps 736 mmHg 72%
    16:00 +18°C° 0 mm 2 mps 736 mmHg 76%
    17:00 +17°C° 0.1 mm 2 mps 736 mmHg 80%
    18:00 +17°C° 0.1 mm 2 mps 737 mmHg 84%
    19:00 +16°C° 0.1 mm 2 mps 737 mmHg 87%
    20:00 +16°C° 0.1 mm 2 mps 737 mmHg 89%
    21:00 +16°C° 0.1 mm 2 mps 738 mmHg 90%
    22:00 +15°C° 0.1 mm 2 mps 738 mmHg 91%
    23:00 +15°C° 0 mm 2 mps 738 mmHg 91%

    24 September, Tuesday

    Time Temperature Precipitation Wind Pressure Humidity
    00:00 +15°C° 0 mm 2 mps 738 mmHg 91%
    01:00 +15°C° 0 mm 2 mps 738 mmHg 92%
    02:00 +15°C° 0.1 mm 2 mps 738 mmHg 92%
    03:00 +15°C° 0.1 mm 2 mps 738 mmHg 92%
    04:00 +15°C° 0.1 mm 2 mps 738 mmHg 92%
    05:00 +15°C° 0.1 mm 2 mps 738 mmHg 92%
    06:00 +15°C° 0.1 mm 2 mps 739 mmHg 91%
    07:00 +15°C° 0.1 mm 2 mps 739 mmHg 91%
    08:00 +15°C° 0 mm 2 mps 739 mmHg 90%
    09:00 +15°C° 0 mm 2 mps 739 mmHg 88%
    10:00 +16°C° 0 mm 2 mps 740 mmHg 87%
    11:00 +16°C° 0 mm 2 mps 740 mmHg 85%
    12:00 +17°C° 0 mm 2 mps 739 mmHg 82%
    13:00 +18°C° 0 mm 1 mps 739 mmHg 80%
    14:00 +19°C° 0 mm 1 mps 739 mmHg 77%
    15:00 +19°C° 0 mm 1 mps 739 mmHg 74%
    16:00 +20°C° 0 mm 1 mps 738 mmHg 71%
    17:00 +19°C° 0 mm 1 mps 738 mmHg 76%
    18:00 +16°C° 0 mm 1 mps 738 mmHg 82%
    19:00 +15°C° 0 mm 1 mps 738 mmHg 87%
    20:00 +15°C° 0 mm 1 mps 738 mmHg 86%
    21:00 +15°C° 0 mm 1 mps 738 mmHg 86%
    22:00 +15°C° 0 mm 2 mps 738 mmHg 85%
    23:00 +15°C° 0 mm 2 mps 737 mmHg 85%

    25 September, Wednesday

    Time Temperature Precipitation Wind Pressure Humidity
    00:00 +15°C° 0 mm 2 mps 737 mmHg 85%
    01:00 +15°C° 0 mm 2 mps 737 mmHg 85%
    02:00 +14°C° 0 mm 2 mps 736 mmHg 87%
    03:00 +14°C° 0 mm 2 mps 736 mmHg 89%
    04:00 +14°C° 0 mm 2 mps 735 mmHg 90%
    05:00 +13°C° 0 mm 3 mps 735 mmHg 90%
    06:00 +13°C° 0 mm 3 mps 735 mmHg 89%
    07:00 +13°C° 0 mm 3 mps 735 mmHg 89%
    08:00 +14°C° 0 mm 3 mps 735 mmHg 87%
    09:00 +14°C° 0 mm 3 mps 735 mmHg 84%
    10:00 +15°C° 0 mm 4 mps 735 mmHg 82%
    11:00 +17°C° 0 mm 4 mps 735 mmHg 77%
    12:00 +18°C° 0 mm 4 mps 735 mmHg 73%
    13:00 +19°C° 0 mm 5 mps 735 mmHg 69%
    14:00 +17°C° 0 mm 5 mps 735 mmHg 68%
    15:00 +18°C° 0 mm 4 mps 735 mmHg 68%
    16:00 +18°C° 0 mm 4 mps 735 mmHg 67%
    17:00 +15°C° 0 mm 4 mps 735 mmHg 73%
    18:00 +14°C° 0 mm 4 mps 735 mmHg 79%
    19:00 +13°C° 0 mm 3 mps 735 mmHg 85%
    20:00 +12°C° 0 mm 3 mps 735 mmHg 87%
    21:00 +12°C° 0 mm 3 mps 735 mmHg 89%
    22:00 +12°C° 0 mm 3 mps 735 mmHg 91%
    23:00 +11°C° 0 mm 3 mps 735 mmHg 91%
    Show more